Weather History for Three Rivers, MI

Change the Weather History Date:

Monday, March 31, 2014

  Actual Average Record
Temperature  
Mean Temperature 48 °F -  
Max Temperature 65 °F 53 °F 80 °F (1981)
Min Temperature 32 °F 31 °F 11 °F (1969)
Degree Days  
Heating Degree Days 16    
Moisture  
Dew Point 30 °F    
Average Humidity 51    
Maximum Humidity 86    
Minimum Humidity 25    
Precipitation  
Precipitation 0.00 in - - ()
Sea Level Pressure  
Sea Level Pressure 30.05 in    
Wind  
Wind Speed 6 mph (SSE)    
Max Wind Speed 17 mph    
Max Gust Speed 30 mph    
Visibility 10 miles    
Events      
Averages and records for this station are not official NWS values.
T = Trace of Precipitation, MM = Missing Value Source: NWS Daily Summary

Daily Weather History Graph

Daily Weather History Graph

Search for Another Location

Airport:

Trip Planner

Search our weather history database for the weather conditions in past years. The results will help you decide how hot, cold, wet, or windy it might be!

Date:

Astronomy

Mar. 31, 2014 Rise Set
Actual Time 7:26 AM EDT 8:06 PM EDT
Civil Twilight 6:58 AM EDT 8:35 PM EDT
Nautical Twilight 6:25 AM EDT 9:08 PM EDT
Astronomical Twilight 5:51 AM EDT 9:42 PM EDT
Moon 7:48 AM EDT (3/31) 9:26 PM EDT (3/31)
Length of Visible Light 13h 36m
Length of Day
12h 40m
New Moon, 1% of the Moon is Illuminated
Mar 31
New Moon
Apr 7
First Quarter
Apr 15
Full
Apr 22
Last Quarter
Apr 29
New

Hourly Weather History & Observations

Time (EDT) Temp. Windchill Dew Point Humidity Pressure Visibility Wind Dir Wind Speed Gust Speed Precip Events Conditions
12:14 AM 39.4 °F - 29.1 °F 67% 30.11 in 10.0 mi Calm Calm - N/A   Clear
12:35 AM 41.2 °F 38.2 °F 28.8 °F 61% 30.10 in 10.0 mi South 4.6 mph - N/A   Clear
12:55 AM 39.7 °F 36.5 °F 28.8 °F 65% 30.11 in 10.0 mi South 4.6 mph - N/A   Clear
1:14 AM 39.0 °F 35.7 °F 28.4 °F 66% 30.11 in 10.0 mi South 4.6 mph - N/A   Clear
1:35 AM 40.1 °F 36.9 °F 28.6 °F 63% 30.12 in 10.0 mi SSE 4.6 mph - N/A   Clear
1:55 AM 38.5 °F 36.1 °F 28.8 °F 68% 30.12 in 10.0 mi South 3.5 mph - N/A   Clear
2:14 AM 37.6 °F - 28.0 °F 68% 30.12 in 10.0 mi Calm Calm - N/A   Clear
2:35 AM 38.5 °F - 28.4 °F 67% 30.12 in 10.0 mi Calm Calm - N/A   Clear
2:55 AM 35.1 °F - 27.3 °F 73% 30.12 in 10.0 mi Calm Calm - N/A   Clear
3:15 AM 36.0 °F - 28.2 °F 73% 30.12 in 10.0 mi Calm Calm - N/A   Clear
3:35 AM 33.6 °F - 26.6 °F 75% 30.12 in 10.0 mi Calm Calm - N/A   Clear
3:55 AM 32.9 °F - 28.2 °F 83% 30.12 in 10.0 mi Calm Calm - N/A   Clear
4:15 AM 33.8 °F - 28.4 °F 81% 30.11 in 10.0 mi Calm Calm - N/A   Clear
4:35 AM 33.3 °F 30.2 °F 29.5 °F 86% 30.11 in 10.0 mi South 3.5 mph - N/A   Clear
4:55 AM 36.0 °F 33.3 °F 29.5 °F 77% 30.11 in 10.0 mi SSE 3.5 mph - N/A   Clear
5:15 AM 38.5 °F 36.1 °F 29.3 °F 70% 30.11 in 10.0 mi SSE 3.5 mph - N/A   Clear
5:35 AM 37.6 °F 34.0 °F 28.9 °F 71% 30.11 in 10.0 mi South 4.6 mph - N/A   Clear
5:54 AM 36.1 °F 33.5 °F 28.8 °F 75% 30.12 in 10.0 mi SSW 3.5 mph - N/A   Clear
6:15 AM 34.7 °F 30.6 °F 28.2 °F 77% 30.12 in 10.0 mi South 4.6 mph - N/A   Clear
6:35 AM 34.2 °F - 28.4 °F 79% 30.13 in 10.0 mi Calm Calm - N/A   Clear
6:54 AM 33.8 °F - 28.8 °F 82% 30.13 in 10.0 mi Calm Calm - N/A   Clear
7:15 AM 33.8 °F - 28.8 °F 82% 30.13 in 10.0 mi Calm Calm - N/A   Clear
7:34 AM 32.5 °F 29.3 °F 27.3 °F 81% 30.13 in 10.0 mi SE 3.5 mph - N/A   Clear
7:55 AM 33.6 °F - 29.5 °F 85% 30.14 in 10.0 mi Calm Calm - N/A   Clear
8:15 AM 32.9 °F - 28.9 °F 85% 30.14 in 10.0 mi Calm Calm - N/A   Clear
8:34 AM 36.0 °F - 32.0 °F 86% 30.14 in 10.0 mi Calm Calm - N/A   Clear
8:55 AM 42.6 °F 40.9 °F 32.0 °F 66% 30.14 in 10.0 mi SSE 3.5 mph - N/A   Clear
9:15 AM 45.0 °F 42.6 °F 32.0 °F 60% 30.14 in 10.0 mi South 4.6 mph - N/A   Clear
9:35 AM 46.2 °F 44.1 °F 32.0 °F 58% 30.13 in 10.0 mi South 4.6 mph - N/A   Clear
9:55 AM 47.3 °F - 32.0 °F 55% 30.13 in 10.0 mi South 5.8 mph - N/A   Clear
10:15 AM 48.9 °F - 32.2 °F 52% 30.12 in 10.0 mi SSE 8.1 mph - N/A   Clear
10:35 AM 50.9 °F - 32.2 °F 49% 30.12 in 10.0 mi South 8.1 mph - N/A   Clear
10:55 AM 51.8 °F - 32.0 °F 47% 30.12 in 10.0 mi South 10.4 mph - N/A   Clear
11:15 AM 54.0 °F - 33.1 °F 45% 30.12 in 10.0 mi SSE 8.1 mph - N/A   Clear
11:35 AM 53.8 °F - 32.2 °F 44% 30.12 in 10.0 mi SSE 11.5 mph - N/A   Clear
11:55 AM 54.9 °F - 32.2 °F 42% 30.11 in 10.0 mi South 11.5 mph 17.3 mph N/A   Clear
12:14 PM 55.4 °F - 31.6 °F 40% 30.11 in 10.0 mi SSE 10.4 mph - N/A   Clear
12:35 PM 56.3 °F - 32.0 °F 40% 30.10 in 10.0 mi South 10.4 mph 16.1 mph N/A   Clear
12:55 PM 58.3 °F - 30.4 °F 35% 30.10 in 10.0 mi SSE 11.5 mph 17.3 mph N/A   Clear
1:14 PM 59.5 °F - 29.5 °F 32% 30.09 in 10.0 mi SSE 13.8 mph 19.6 mph N/A   Clear
1:35 PM 60.8 °F - 27.9 °F 29% 30.08 in 10.0 mi South 16.1 mph 21.9 mph N/A   Clear
1:55 PM 60.4 °F - 27.9 °F 29% 30.08 in 10.0 mi South 13.8 mph 25.3 mph N/A   Clear
2:14 PM 60.4 °F - 27.1 °F 28% 30.07 in 10.0 mi South 12.7 mph 17.3 mph N/A   Clear
2:35 PM 61.9 °F - 27.3 °F 27% 30.06 in 10.0 mi SSE 13.8 mph 18.4 mph N/A   Clear
2:55 PM 63.9 °F - 28.4 °F 26% 30.05 in 10.0 mi South 11.5 mph 18.4 mph N/A   Clear
3:15 PM 63.9 °F - 27.5 °F 25% 30.04 in 10.0 mi SSE 12.7 mph - N/A   Clear
3:35 PM 63.5 °F - 28.0 °F 26% 30.04 in 10.0 mi SSE 13.8 mph - N/A   Clear
3:55 PM 63.5 °F - 29.5 °F 28% 30.02 in 10.0 mi South 17.3 mph - N/A   Clear
4:15 PM 64.2 °F - 30.4 °F 28% 30.01 in 10.0 mi SSE 17.3 mph 23.0 mph N/A   Clear
4:35 PM 64.8 °F - 31.1 °F 28% 30.00 in 10.0 mi SSE 15.0 mph 24.2 mph N/A   Clear
4:55 PM 65.7 °F - 31.1 °F 27% 29.99 in 10.0 mi SSE 16.1 mph 20.7 mph N/A   Clear
5:15 PM 64.4 °F - 31.1 °F 29% 29.97 in 10.0 mi South 15.0 mph 20.7 mph N/A   Clear
5:35 PM 63.9 °F - 31.6 °F 30% 29.97 in 10.0 mi SE 11.5 mph 23.0 mph N/A   Clear
5:55 PM 63.5 °F - 31.8 °F 31% 29.96 in 10.0 mi SSE 12.7 mph 20.7 mph N/A   Clear
6:15 PM 62.6 °F - 32.0 °F 32% 29.95 in 10.0 mi SSE 11.5 mph 16.1 mph N/A   Clear
6:35 PM 61.7 °F - 32.9 °F 34% 29.94 in 10.0 mi SE 12.7 mph 21.9 mph N/A   Clear
6:55 PM 61.2 °F - 32.9 °F 35% 29.94 in 10.0 mi SSE 9.2 mph - N/A   Clear
7:15 PM 60.4 °F - 32.7 °F 35% 29.93 in 10.0 mi SSE 13.8 mph 18.4 mph N/A   Clear
7:35 PM 59.5 °F - 32.5 °F 36% 29.92 in 10.0 mi SSE 12.7 mph 20.7 mph N/A   Clear
7:55 PM 59.2 °F - 32.5 °F 37% 29.92 in 10.0 mi SSE 10.4 mph 20.7 mph N/A   Clear
8:14 PM 58.6 °F - 32.7 °F 38% 29.92 in 10.0 mi SSE 12.7 mph 18.4 mph N/A   Clear
8:35 PM 58.5 °F - 32.2 °F 37% 29.91 in 10.0 mi SSE 12.7 mph 19.6 mph N/A   Mostly Cloudy
8:55 PM 58.5 °F - 31.3 °F 36% 29.90 in 10.0 mi SE 13.8 mph 21.9 mph N/A   Overcast
9:14 PM 58.8 °F - 30.4 °F 34% 29.89 in 10.0 mi SSE 13.8 mph 26.5 mph N/A   Overcast
9:35 PM 58.6 °F - 30.6 °F 34% 29.88 in 10.0 mi SSE 12.7 mph 29.9 mph N/A   Scattered Clouds
9:55 PM 58.1 °F - 31.1 °F 36% 29.87 in 10.0 mi SE 15.0 mph 21.9 mph N/A   Mostly Cloudy
10:14 PM 57.9 °F - 31.8 °F 37% 29.89 in 10.0 mi SSE 11.5 mph 19.6 mph N/A   Overcast
10:35 PM 57.2 °F - 32.4 °F 39% 29.88 in 10.0 mi SSE 12.7 mph 17.3 mph N/A   Overcast
10:55 PM 56.7 °F - 32.4 °F 40% 29.87 in 10.0 mi SSE 12.7 mph 19.6 mph N/A   Scattered Clouds
11:15 PM 57.2 °F - 32.2 °F 39% 29.87 in 10.0 mi SSE 12.7 mph 18.4 mph N/A   Mostly Cloudy
11:35 PM 57.2 °F - 32.2 °F 39% 29.89 in 10.0 mi South 16.1 mph 20.7 mph N/A   Overcast
11:55 PM 56.5 °F - 33.4 °F 42% 29.91 in 10.0 mi South 15.0 mph 21.9 mph N/A   Overcast